RYR8771 LIBC-LIMF

Flight info

Callsign RYR8771
Flight time 1h 40m
Altitude 18000
Route CDC M729 AGNIS/N0443F360 DCT DELER DCT PEVIR DCT EDOPA DCT MALOG DCT VEXUV DCT PNZ DCT RIFFI DCT ELVIN DCT LUNAK DCT RAVAL DCT MEDAL DCT GILIO DCT ELB DCT LAGEN
Aircraft B738/M-SDE2E3FGHIRWXY/LB1

Departure

Time 2026-05-07 16:08
Airport Crotone Sant'Anna Pythagoras Airport (LIBC)

Arrival

Time 2026-05-07 17:49
Airport Turin Airport (LIMF)
Time Latitude Longitude Altitude Speed Heading
2026-05-07 15:44 38.99517 17.07792 527 ft 0 kts 308°
2026-05-07 16:04 38.99519 17.07789 527 ft 2 kts 310°
2026-05-07 16:05 38.99543 17.07781 527 ft 5 kts 20°
2026-05-07 16:05 38.99611 17.07840 526 ft 11 kts 37°
2026-05-07 16:05 38.99653 17.07918 525 ft 11 kts 82°
2026-05-07 16:05 38.99673 17.08010 523 ft 11 kts 63°
2026-05-07 16:06 38.99776 17.08010 522 ft 18 kts 349°
2026-05-07 16:06 38.99899 17.07978 525 ft 20 kts 348°
2026-05-07 16:06 39.00078 17.07933 526 ft 31 kts 348°
2026-05-07 16:06 39.00270 17.07884 528 ft 23 kts 349°
2026-05-07 16:07 39.00426 17.07845 528 ft 22 kts 348°
2026-05-07 16:07 39.00528 17.07813 530 ft 13 kts 327°
2026-05-07 16:07 39.00593 17.07793 530 ft 5 kts 65°
2026-05-07 16:07 39.00580 17.07805 530 ft 2 kts 159°
2026-05-07 16:08 39.00547 17.07815 531 ft 18 kts 167°
2026-05-07 16:08 39.00160 17.07914 528 ft 94 kts 169°
2026-05-07 16:08 38.99290 17.08136 531 ft 158 kts 168°
2026-05-07 16:08 38.98155 17.08374 1236 ft 162 kts 167°
2026-05-07 16:09 38.97055 17.08614 2221 ft 161 kts 169°
2026-05-07 16:09 38.95945 17.08898 2999 ft 171 kts 167°
2026-05-07 16:09 38.94721 17.09211 3627 ft 181 kts 169°
2026-05-07 16:09 38.93440 17.09554 4106 ft 197 kts 167°
2026-05-07 16:10 38.92070 17.09923 4617 ft 204 kts 168°
2026-05-07 16:10 38.90648 17.10314 5240 ft 215 kts 167°
2026-05-07 16:10 38.89124 17.10404 5874 ft 228 kts 192°
2026-05-07 16:10 38.87644 17.09541 6557 ft 243 kts 212°
2026-05-07 16:11 38.86419 17.07956 7206 ft 259 kts 231°
2026-05-07 16:11 38.85676 17.05777 7850 ft 276 kts 251°
2026-05-07 16:11 38.85281 17.03351 8512 ft 279 kts 255°
2026-05-07 16:11 38.84940 17.00906 9158 ft 279 kts 255°
2026-05-07 16:12 38.84608 16.98456 9784 ft 279 kts 255°
2026-05-07 16:12 38.84271 16.96003 10000 ft 280 kts 255°
2026-05-07 16:12 38.83934 16.93579 10025 ft 280 kts 255°
2026-05-07 16:12 38.83586 16.91117 10035 ft 280 kts 255°
2026-05-07 16:13 38.83230 16.88627 10047 ft 281 kts 255°
2026-05-07 16:13 38.82865 16.86111 10154 ft 296 kts 255°
2026-05-07 16:13 38.82467 16.83408 10349 ft 321 kts 255°
2026-05-07 16:13 38.82047 16.80555 10761 ft 336 kts 256°
2026-05-07 16:14 38.81608 16.77547 11463 ft 341 kts 256°
2026-05-07 16:14 38.81177 16.74590 12220 ft 343 kts 257°
2026-05-07 16:14 38.80738 16.71581 13046 ft 344 kts 257°
2026-05-07 16:14 38.80296 16.68562 13858 ft 345 kts 258°
2026-05-07 16:15 38.79850 16.65533 14610 ft 344 kts 258°
2026-05-07 16:15 38.79403 16.62505 15227 ft 350 kts 258°
2026-05-07 16:15 38.78947 16.59422 15856 ft 353 kts 257°
2026-05-07 16:15 38.78485 16.56314 16523 ft 356 kts 257°
2026-05-07 16:16 38.78022 16.53195 17219 ft 358 kts 258°
2026-05-07 16:16 38.77553 16.50047 17835 ft 362 kts 258°
2026-05-07 16:16 38.77079 16.46868 18441 ft 364 kts 258°
2026-05-07 16:16 38.76601 16.43672 19025 ft 365 kts 258°
2026-05-07 16:17 38.76192 16.40464 19648 ft 367 kts 266°
2026-05-07 16:17 38.76493 16.37217 20232 ft 373 kts 282°
2026-05-07 16:17 38.77494 16.34121 20848 ft 381 kts 297°
2026-05-07 16:17 38.79097 16.31379 21458 ft 387 kts 304°
2026-05-07 16:18 38.80856 16.28743 22008 ft 391 kts 306°
2026-05-07 16:18 38.82654 16.26114 22523 ft 393 kts 306°
2026-05-07 16:18 38.84465 16.23465 23076 ft 395 kts 306°
2026-05-07 16:18 38.86266 16.20803 23611 ft 396 kts 305°
2026-05-07 16:19 38.88065 16.18119 24058 ft 397 kts 305°
2026-05-07 16:19 38.89857 16.15427 24535 ft 397 kts 305°
2026-05-07 16:19 38.91654 16.12714 24953 ft 399 kts 304°
2026-05-07 16:19 38.93448 16.09999 25418 ft 400 kts 304°
2026-05-07 16:20 38.95248 16.07273 25886 ft 400 kts 304°
2026-05-07 16:20 38.97048 16.04543 26332 ft 401 kts 303°
2026-05-07 16:20 38.98827 16.01843 26765 ft 401 kts 303°
2026-05-07 16:20 39.00658 15.99063 27205 ft 402 kts 303°
2026-05-07 16:21 39.02473 15.96304 27469 ft 407 kts 303°
2026-05-07 16:21 39.04248 15.93603 27820 ft 409 kts 303°
2026-05-07 16:21 39.06087 15.90806 28232 ft 409 kts 302°
2026-05-07 16:21 39.07925 15.88009 28655 ft 409 kts 302°
2026-05-07 16:22 39.09760 15.85213 29029 ft 410 kts 302°
2026-05-07 16:22 39.11605 15.82397 29381 ft 412 kts 302°
2026-05-07 16:22 39.13452 15.79575 29727 ft 413 kts 302°
2026-05-07 16:22 39.15303 15.76743 30124 ft 412 kts 302°
2026-05-07 16:23 39.17144 15.73931 30604 ft 408 kts 302°
2026-05-07 16:23 39.18963 15.71148 31055 ft 406 kts 302°
2026-05-07 16:23 39.20787 15.68349 31268 ft 409 kts 302°
2026-05-07 16:23 39.22618 15.65537 31591 ft 409 kts 302°
2026-05-07 16:24 39.24439 15.62747 32040 ft 405 kts 302°
2026-05-07 16:24 39.26253 15.59968 32432 ft 404 kts 302°
2026-05-07 16:24 39.28059 15.57195 32781 ft 403 kts 302°
2026-05-07 16:24 39.29855 15.54436 33167 ft 401 kts 301°
2026-05-07 16:25 39.31644 15.51683 33583 ft 398 kts 301°
2026-05-07 16:25 39.33421 15.48946 33951 ft 396 kts 301°
2026-05-07 16:25 39.35186 15.46225 34272 ft 395 kts 301°
2026-05-07 16:25 39.36944 15.43511 34634 ft 392 kts 301°
2026-05-07 16:26 39.38684 15.40825 35016 ft 388 kts 301°
2026-05-07 16:26 39.40411 15.38155 35322 ft 387 kts 301°
2026-05-07 16:26 39.42136 15.35482 35544 ft 387 kts 301°
2026-05-07 16:26 39.43276 15.33714 35715 ft 387 kts 301°
2026-05-07 16:27 39.45582 15.30135 35914 ft 389 kts 301°
2026-05-07 16:27 39.49061 15.24724 35927 ft 392 kts 300°
2026-05-07 16:28 39.51947 15.20243 35899 ft 387 kts 300°
2026-05-07 16:28 39.55923 15.14056 35908 ft 383 kts 300°
2026-05-07 16:29 39.59324 15.08747 35907 ft 383 kts 300°
2026-05-07 16:29 39.62169 15.04298 35902 ft 382 kts 300°
2026-05-07 16:30 39.65525 14.99042 35901 ft 382 kts 300°
2026-05-07 16:30 39.68894 14.93757 35903 ft 383 kts 300°
2026-05-07 16:31 39.72295 14.88414 35910 ft 384 kts 299°
2026-05-07 16:31 39.75698 14.83056 35903 ft 385 kts 299°
2026-05-07 16:32 39.79105 14.77687 35902 ft 385 kts 299°
2026-05-07 16:32 39.82519 14.72301 35901 ft 386 kts 299°
2026-05-07 16:33 39.85931 14.66910 35901 ft 386 kts 299°
2026-05-07 16:33 39.89342 14.61510 35901 ft 386 kts 299°
2026-05-07 16:34 39.92751 14.56101 35904 ft 386 kts 299°
2026-05-07 16:34 39.96154 14.50691 35904 ft 386 kts 299°
2026-05-07 16:35 39.99549 14.45285 35901 ft 385 kts 299°
2026-05-07 16:35 40.02939 14.39877 35909 ft 384 kts 298°
2026-05-07 16:36 40.06315 14.34483 35899 ft 383 kts 298°
2026-05-07 16:36 40.09669 14.29113 35899 ft 380 kts 298°
2026-05-07 16:37 40.13002 14.23766 35902 ft 378 kts 298°
2026-05-07 16:37 40.16316 14.18441 35914 ft 377 kts 297°
2026-05-07 16:38 40.19618 14.13131 35903 ft 376 kts 298°
2026-05-07 16:38 40.22929 14.07832 35904 ft 376 kts 298°
2026-05-07 16:39 40.26230 14.02539 35908 ft 376 kts 297°
2026-05-07 16:39 40.29530 13.97225 35908 ft 376 kts 297°
2026-05-07 16:40 40.32816 13.91896 35917 ft 376 kts 297°
2026-05-07 16:40 40.36097 13.86562 35913 ft 376 kts 297°
2026-05-07 16:41 40.39374 13.81224 35914 ft 376 kts 297°
2026-05-07 16:41 40.42658 13.75872 35917 ft 377 kts 297°
2026-05-07 16:42 40.45946 13.70520 35922 ft 377 kts 297°
2026-05-07 16:42 40.49217 13.65188 35921 ft 377 kts 297°
2026-05-07 16:43 40.52507 13.59815 35924 ft 378 kts 297°
2026-05-07 16:43 40.55794 13.54430 35951 ft 378 kts 297°
2026-05-07 16:44 40.59072 13.49039 35953 ft 377 kts 297°
2026-05-07 16:44 40.62345 13.43646 35935 ft 377 kts 297°
2026-05-07 16:45 40.65606 13.38261 35923 ft 376 kts 297°
2026-05-07 16:45 40.68857 13.32887 35926 ft 374 kts 297°
2026-05-07 16:46 40.72098 13.27520 35928 ft 374 kts 297°
2026-05-07 16:46 40.75329 13.22167 35928 ft 373 kts 296°
2026-05-07 16:47 40.78551 13.16815 35933 ft 372 kts 296°
2026-05-07 16:47 40.81767 13.11462 35967 ft 373 kts 297°
2026-05-07 16:48 40.83959 13.07805 35949 ft 374 kts 297°
2026-05-07 16:48 40.87193 13.02403 35948 ft 376 kts 297°
2026-05-07 16:49 40.90444 12.96968 35945 ft 378 kts 297°
2026-05-07 16:49 40.94053 12.91763 35935 ft 388 kts 303°
2026-05-07 16:50 40.97827 12.86712 35938 ft 389 kts 303°
2026-05-07 16:50 41.01625 12.81601 35941 ft 389 kts 302°
2026-05-07 16:51 41.05410 12.76472 35952 ft 389 kts 302°
2026-05-07 16:51 41.09195 12.71324 35948 ft 391 kts 303°
2026-05-07 16:52 41.12980 12.66160 35941 ft 391 kts 303°
2026-05-07 16:52 41.16773 12.60979 35944 ft 391 kts 303°
2026-05-07 16:53 41.20569 12.55792 35945 ft 392 kts 303°
2026-05-07 16:53 41.24361 12.50602 35945 ft 392 kts 303°
2026-05-07 16:54 41.28157 12.45401 35945 ft 392 kts 303°
2026-05-07 16:54 41.31951 12.40195 35983 ft 392 kts 303°
2026-05-07 16:55 41.35752 12.34968 35954 ft 394 kts 303°
2026-05-07 16:55 41.39567 12.29714 35950 ft 395 kts 303°
2026-05-07 16:56 41.43389 12.24439 35949 ft 396 kts 303°
2026-05-07 16:56 41.49133 12.16496 35951 ft 397 kts 303°
2026-05-07 16:57 41.52971 12.11182 35951 ft 398 kts 303°
2026-05-07 16:57 41.56817 12.05853 35977 ft 399 kts 303°
2026-05-07 16:58 41.60676 12.00491 35962 ft 403 kts 303°
2026-05-07 16:58 41.64585 11.95049 35969 ft 407 kts 303°
2026-05-07 16:59 41.68518 11.89571 35975 ft 409 kts 303°
2026-05-07 16:59 41.72448 11.84069 35979 ft 409 kts 303°
2026-05-07 17:00 41.76355 11.78546 35984 ft 408 kts 303°
2026-05-07 17:00 41.80255 11.73035 35970 ft 407 kts 303°
2026-05-07 17:01 41.84133 11.67569 35987 ft 407 kts 304°
2026-05-07 17:01 41.88028 11.62084 35969 ft 406 kts 304°
2026-05-07 17:02 41.91912 11.56602 35959 ft 404 kts 304°
2026-05-07 17:02 41.95778 11.51132 35962 ft 403 kts 304°
2026-05-07 17:03 41.99636 11.45660 35963 ft 403 kts 304°
2026-05-07 17:03 42.03482 11.40198 35965 ft 402 kts 304°
2026-05-07 17:04 42.07327 11.34726 35972 ft 403 kts 304°
2026-05-07 17:04 42.11176 11.29235 35960 ft 405 kts 304°
2026-05-07 17:05 42.15086 11.23637 35975 ft 415 kts 304°
2026-05-07 17:05 42.19065 11.17943 35957 ft 417 kts 304°
2026-05-07 17:06 42.23046 11.12240 35971 ft 417 kts 304°
2026-05-07 17:06 42.27016 11.06536 35962 ft 417 kts 304°
2026-05-07 17:07 42.30982 11.00823 35965 ft 416 kts 304°
2026-05-07 17:07 42.34937 10.95116 35965 ft 415 kts 304°
2026-05-07 17:08 42.38877 10.89422 35953 ft 414 kts 304°
2026-05-07 17:08 42.42806 10.83741 35971 ft 413 kts 304°
2026-05-07 17:09 42.46726 10.78060 35972 ft 412 kts 304°
2026-05-07 17:09 42.50634 10.72383 35966 ft 411 kts 304°
2026-05-07 17:10 42.54533 10.66708 35970 ft 411 kts 304°
2026-05-07 17:10 42.58400 10.61069 35969 ft 411 kts 304°
2026-05-07 17:11 42.62316 10.55347 35988 ft 411 kts 304°
2026-05-07 17:11 42.66178 10.49691 35979 ft 411 kts 304°
2026-05-07 17:12 42.70068 10.43986 35971 ft 412 kts 304°
2026-05-07 17:12 42.74055 10.38348 35970 ft 419 kts 310°
2026-05-07 17:13 42.78593 10.33300 35973 ft 423 kts 313°
2026-05-07 17:13 42.83193 10.28339 35967 ft 423 kts 313°
2026-05-07 17:14 42.87779 10.23335 35973 ft 422 kts 313°
2026-05-07 17:14 42.92347 10.18296 35982 ft 422 kts 313°
2026-05-07 17:15 42.96897 10.13248 35973 ft 421 kts 313°
2026-05-07 17:15 43.00673 10.09048 35984 ft 421 kts 313°
2026-05-07 17:16 43.05207 10.03997 35977 ft 420 kts 313°
2026-05-07 17:16 43.09728 9.98952 35975 ft 419 kts 313°
2026-05-07 17:17 43.14234 9.93914 35980 ft 418 kts 312°
2026-05-07 17:17 43.18726 9.88881 35979 ft 417 kts 312°
2026-05-07 17:18 43.23210 9.83846 35983 ft 417 kts 313°
2026-05-07 17:18 43.27691 9.78805 35981 ft 417 kts 312°
2026-05-07 17:19 43.32170 9.73756 35977 ft 417 kts 312°
2026-05-07 17:19 43.36658 9.68688 35982 ft 418 kts 312°
2026-05-07 17:20 43.41145 9.63609 35986 ft 418 kts 312°
2026-05-07 17:20 43.45642 9.58511 35937 ft 421 kts 313°
2026-05-07 17:21 43.47888 9.55956 35481 ft 424 kts 313°
2026-05-07 17:21 43.50175 9.53360 35071 ft 419 kts 313°
2026-05-07 17:21 43.52387 9.50850 34666 ft 415 kts 313°
2026-05-07 17:21 43.54600 9.48335 34255 ft 411 kts 313°
2026-05-07 17:22 43.56794 9.45837 33843 ft 407 kts 313°
2026-05-07 17:22 43.58968 9.43358 33380 ft 403 kts 312°
2026-05-07 17:22 43.61118 9.40912 32971 ft 398 kts 313°
2026-05-07 17:22 43.63245 9.38494 32561 ft 394 kts 313°
2026-05-07 17:23 43.65342 9.36100 32196 ft 389 kts 312°
2026-05-07 17:23 43.67413 9.33729 31787 ft 385 kts 312°
2026-05-07 17:23 43.69463 9.31378 31405 ft 381 kts 312°
2026-05-07 17:23 43.71491 9.29050 31028 ft 377 kts 312°
2026-05-07 17:24 43.73499 9.26742 30650 ft 373 kts 312°
2026-05-07 17:24 43.75487 9.24456 30281 ft 370 kts 312°
2026-05-07 17:24 43.77456 9.22189 29886 ft 366 kts 312°
2026-05-07 17:24 43.79401 9.19948 29494 ft 362 kts 312°
2026-05-07 17:25 43.81324 9.17732 29114 ft 358 kts 312°
2026-05-07 17:25 43.83224 9.15540 28745 ft 353 kts 312°
2026-05-07 17:25 43.85102 9.13371 28370 ft 349 kts 313°
2026-05-07 17:25 43.86958 9.11225 28017 ft 346 kts 313°
2026-05-07 17:26 43.88799 9.09094 27604 ft 344 kts 313°
2026-05-07 17:26 43.90628 9.06974 27256 ft 342 kts 313°
2026-05-07 17:26 43.92426 9.04888 26892 ft 341 kts 313°
2026-05-07 17:26 43.94243 9.02780 26532 ft 341 kts 314°
2026-05-07 17:27 43.96083 9.00637 26189 ft 352 kts 314°
2026-05-07 17:27 43.97984 8.98420 25811 ft 360 kts 314°
2026-05-07 17:27 43.99902 8.96190 25417 ft 358 kts 315°
2026-05-07 17:27 44.01808 8.93976 25029 ft 356 kts 315°
2026-05-07 17:28 44.03703 8.91775 24661 ft 354 kts 315°
2026-05-07 17:28 44.05585 8.89584 24279 ft 352 kts 315°
2026-05-07 17:28 44.07451 8.87408 23923 ft 350 kts 315°
2026-05-07 17:28 44.09314 8.85233 23507 ft 349 kts 316°
2026-05-07 17:29 44.11173 8.83061 23088 ft 348 kts 316°
2026-05-07 17:29 44.13021 8.80901 22696 ft 346 kts 316°
2026-05-07 17:29 44.14855 8.78753 22309 ft 343 kts 316°
2026-05-07 17:29 44.16675 8.76622 21949 ft 341 kts 316°
2026-05-07 17:30 44.18482 8.74503 21580 ft 338 kts 316°
2026-05-07 17:30 44.20276 8.72397 21223 ft 336 kts 317°
2026-05-07 17:30 44.22060 8.70302 20872 ft 334 kts 317°
2026-05-07 17:30 44.23835 8.68215 20510 ft 333 kts 317°
2026-05-07 17:31 44.25596 8.66142 20162 ft 331 kts 317°
2026-05-07 17:31 44.27355 8.64070 19811 ft 330 kts 317°
2026-05-07 17:31 44.29105 8.62006 19469 ft 329 kts 317°
2026-05-07 17:31 44.30849 8.59948 19123 ft 328 kts 317°
2026-05-07 17:32 44.32589 8.57893 18772 ft 327 kts 317°
2026-05-07 17:32 44.34325 8.55840 18423 ft 326 kts 317°
2026-05-07 17:32 44.36054 8.53798 18045 ft 326 kts 317°
2026-05-07 17:32 44.37783 8.51753 17659 ft 325 kts 317°
2026-05-07 17:33 44.39494 8.49719 17295 ft 323 kts 316°
2026-05-07 17:33 44.41061 8.47489 16921 ft 321 kts 310°
2026-05-07 17:33 44.42515 8.45146 16579 ft 318 kts 308°
2026-05-07 17:33 44.43943 8.42794 16226 ft 316 kts 308°
2026-05-07 17:34 44.45362 8.40461 15904 ft 314 kts 309°
2026-05-07 17:34 44.46767 8.38175 15564 ft 313 kts 308°
2026-05-07 17:34 44.48210 8.35848 15224 ft 312 kts 309°
2026-05-07 17:34 44.49617 8.33586 14887 ft 312 kts 310°
2026-05-07 17:35 44.51040 8.31305 14551 ft 311 kts 310°
2026-05-07 17:35 44.52465 8.29019 14210 ft 311 kts 310°
2026-05-07 17:35 44.53891 8.26736 13879 ft 311 kts 309°
2026-05-07 17:35 44.55310 8.24463 13538 ft 309 kts 309°
2026-05-07 17:36 44.56707 8.22225 13414 ft 300 kts 309°
2026-05-07 17:36 44.58067 8.20043 13154 ft 297 kts 309°
2026-05-07 17:36 44.59436 8.17833 12696 ft 300 kts 309°
2026-05-07 17:36 44.60805 8.15628 12366 ft 299 kts 309°
2026-05-07 17:37 44.62165 8.13429 12050 ft 298 kts 309°
2026-05-07 17:37 44.63520 8.11238 11783 ft 295 kts 309°
2026-05-07 17:37 44.64845 8.09095 11673 ft 287 kts 309°
2026-05-07 17:37 44.66139 8.07003 11537 ft 280 kts 310°
2026-05-07 17:38 44.67401 8.04963 11401 ft 274 kts 309°
2026-05-07 17:38 44.68651 8.02936 11127 ft 274 kts 310°
2026-05-07 17:38 44.69892 8.00930 10865 ft 272 kts 310°
2026-05-07 17:38 44.71123 7.98940 10615 ft 271 kts 309°
2026-05-07 17:39 44.72355 7.96946 10345 ft 270 kts 309°
2026-05-07 17:39 44.73586 7.94952 10077 ft 270 kts 310°
2026-05-07 17:39 44.74815 7.92960 9805 ft 269 kts 310°
2026-05-07 17:39 44.76040 7.90976 9509 ft 268 kts 309°
2026-05-07 17:40 44.77175 7.88911 9219 ft 266 kts 303°
2026-05-07 17:40 44.78194 7.86739 8947 ft 265 kts 302°
2026-05-07 17:40 44.79185 7.84568 8672 ft 264 kts 302°
2026-05-07 17:40 44.80180 7.82397 8400 ft 263 kts 302°
2026-05-07 17:41 44.81177 7.80238 8129 ft 262 kts 303°
2026-05-07 17:41 44.82171 7.78094 7864 ft 261 kts 303°
2026-05-07 17:41 44.83164 7.75961 7602 ft 260 kts 303°
2026-05-07 17:41 44.84141 7.73867 7353 ft 259 kts 303°
2026-05-07 17:42 44.85128 7.71757 7105 ft 257 kts 303°
2026-05-07 17:42 44.86109 7.69659 6850 ft 256 kts 303°
2026-05-07 17:42 44.87088 7.67564 6593 ft 256 kts 303°
2026-05-07 17:42 44.88051 7.65499 6322 ft 249 kts 303°
2026-05-07 17:43 44.89205 7.63752 6020 ft 242 kts 332°
2026-05-07 17:43 44.90781 7.63233 5834 ft 230 kts
2026-05-07 17:43 44.92358 7.63257 5593 ft 224 kts
2026-05-07 17:43 44.93905 7.63317 5362 ft 221 kts
2026-05-07 17:44 44.95447 7.63404 5138 ft 223 kts
2026-05-07 17:44 44.96999 7.63501 4912 ft 227 kts
2026-05-07 17:44 44.98595 7.63603 4741 ft 230 kts
2026-05-07 17:44 45.00181 7.63704 4558 ft 228 kts
2026-05-07 17:45 45.01743 7.63803 4299 ft 221 kts
2026-05-07 17:45 45.03253 7.63898 4006 ft 214 kts
2026-05-07 17:45 45.04715 7.63990 3723 ft 207 kts
2026-05-07 17:45 45.06123 7.64080 3461 ft 201 kts
2026-05-07 17:46 45.07497 7.64167 3196 ft 194 kts
2026-05-07 17:46 45.08821 7.64251 2951 ft 188 kts
2026-05-07 17:46 45.10102 7.64332 2699 ft 181 kts
2026-05-07 17:46 45.11342 7.64411 2457 ft 174 kts
2026-05-07 17:47 45.12518 7.64485 2239 ft 166 kts
2026-05-07 17:47 45.13653 7.64557 2007 ft 162 kts
2026-05-07 17:47 45.14768 7.64628 1816 ft 160 kts
2026-05-07 17:47 45.15863 7.64698 1590 ft 155 kts
2026-05-07 17:48 45.16932 7.64766 1382 ft 153 kts
2026-05-07 17:48 45.17995 7.64834 1198 ft 153 kts
2026-05-07 17:48 45.19041 7.64899 1019 ft 149 kts
2026-05-07 17:48 45.20012 7.64958 978 ft 121 kts
2026-05-07 17:49 45.20697 7.65002 982 ft 66 kts
2026-05-07 17:49 45.20865 7.64937 984 ft 18 kts 292°
2026-05-07 17:49 45.20871 7.64798 990 ft 14 kts 252°
2026-05-07 17:49 45.20804 7.64739 986 ft 12 kts 182°
2026-05-07 17:50 45.20724 7.64738 985 ft 12 kts 184°
2026-05-07 17:50 45.20632 7.64735 985 ft 15 kts 185°
2026-05-07 17:50 45.20517 7.64723 986 ft 17 kts 182°
2026-05-07 17:50 45.20401 7.64718 989 ft 16 kts 183°
2026-05-07 17:51 45.20290 7.64711 985 ft 16 kts 183°
2026-05-07 17:51 45.20180 7.64703 986 ft 16 kts 184°
2026-05-07 17:51 45.20066 7.64696 991 ft 17 kts 183°
2026-05-07 17:51 45.19935 7.64688 984 ft 20 kts 182°
2026-05-07 17:52 45.19805 7.64681 989 ft 17 kts 175°
2026-05-07 17:52 45.19690 7.64696 984 ft 16 kts 182°
2026-05-07 17:52 45.19580 7.64689 985 ft 16 kts 182°
2026-05-07 17:52 45.19473 7.64682 990 ft 15 kts 182°
2026-05-07 17:53 45.19371 7.64676 985 ft 14 kts 182°
2026-05-07 17:53 45.19273 7.64670 985 ft 14 kts 182°
2026-05-07 17:53 45.19223 7.64658 989 ft 2 kts 253°
2026-05-07 17:53 45.19229 7.64634 988 ft 4 kts 288°
2026-05-07 17:54 45.19228 7.64580 985 ft 6 kts 262°
2026-05-07 17:54 45.19223 7.64538 985 ft 3 kts 256°
2026-05-07 17:54 45.19222 7.64533 985 ft 0 kts 256°